Home > Weather > Lübeck > Past weeks

Flag for Germany Weather for the Past 2 Weeks in Lübeck, Schleswig-Holstein, Germany

Now
63 °F

Passing clouds.


Feels Like: 63 °F
Forecast: 44 / 69 °F
Wind: 9 mph from East

Location: Luebeck-Blankensee

Current Time: May 5, 2016 at 4:55:02 PM

Latest Report: May 5, 2016 at 4:20 PM


Visibility: N/A

Pressure: 30.33 "Hg

Humidity: 49%

Dew Point: 43 °F

Location of LübeckLocation

Historic Weather in Lübeck — Graph

°F

Lübeck Temperature Yesterday

Maximum temperature yesterday: 59 °F (at 5:20 PM)
Minimum temperature yesterday: 39 °F (at 6:50 AM)
Average temperature yesterday: 52 °F

High & Low Weather Summary for the Past Weeks

 TemperatureHumidityPressure
High68 °F (May 2, 5:20 PM)100% (Apr 26, 7:50 AM)30.42 "Hg (Apr 26, 7:50 AM)
Low32 °F (Apr 25, 6:50 AM)28% (Apr 23, 3:50 PM)29.39 "Hg (Apr 26, 6:20 AM)
Average48 °F67%30.00 "Hg
* Reported Apr 20 3:20 PM — May 5 3:20 PM, Lübeck, Weather by CustomWeather, © 2016

Note: Actual official high and low records may vary slightly from our data, if they occured in-between our weather recording intervals... More about our weather records

Advertising

Lübeck Weather History for the Previous 24 Hours

Scroll right to see more
 ConditionsComfort  
Time TempWeatherWind HumidityBarometerVisibility
3:20 PM
Thu, May 5
61 °FPassing clouds.8 mph42%30.33 "HgN/A
2:50 PM63 °FPassing clouds.8 mph30%30.36 "HgN/A
2:20 PM61 °FPassing clouds.6 mph42%30.36 "HgN/A
1:50 PM61 °FPassing clouds.7 mph39%30.36 "HgN/A
1:20 PM59 °FPassing clouds.7 mph42%30.36 "HgN/A
12:50 PM59 °FPassing clouds.9 mph42%30.39 "HgN/A
12:20 PM59 °FPassing clouds.6 mph42%30.39 "HgN/A
11:50 AM59 °FSunny.5 mph45%30.39 "Hg10 mi
11:20 AM59 °FSunny.3 mph48%30.39 "Hg10 mi
10:50 AM57 °FPassing clouds.6 mph51%30.39 "HgN/A
10:20 AM55 °FPassing clouds.6 mph55%30.42 "HgN/A
9:50 AM55 °FPassing clouds.5 mph47%30.42 "HgN/A
9:20 AM54 °FPassing clouds.3 mph54%30.42 "HgN/A
8:50 AM52 °FSunny.2 mph62%30.42 "Hg10 mi
8:20 AM46 °FSunny.2 mph71%30.42 "Hg10 mi
7:50 AM43 °FSunny.2 mph87%30.42 "Hg10 mi
7:20 AM39 °FSunny.1 mph81%30.42 "Hg10 mi
6:50 AM36 °FSunny.1 mph87%30.42 "Hg10 mi
6:20 AM34 °FClear.1 mph93%30.42 "Hg10 mi
7:50 PM
Wed, May 4
54 °FSunny.8 mph41%30.39 "Hg10 mi
7:20 PM55 °FSunny.8 mph38%30.39 "Hg10 mi
6:50 PM55 °FSunny.9 mph44%30.39 "Hg10 mi
6:20 PM57 °FSunny.8 mph41%30.39 "Hg10 mi
5:50 PM57 °FPassing clouds.8 mph44%30.39 "HgN/A
5:20 PM59 °FPassing clouds.8 mph48%30.39 "HgN/A
4:50 PM57 °FSunny.3 mph41%30.39 "Hg10 mi
4:20 PM57 °FSunny.3 mph41%30.39 "Hg10 mi
Weather by CustomWeather, © 2016

See weather overviewHow to use our weather pages